Location: Libas
(9.8833°N, 125.9833°E)
Time: 22:00:04
(UTC+00:00)

GPS 2-15 Rocket1 - Pass Details

Date: 27 October 2020
Orbit: 624 x 675 km, 19.8° (Epoch: 25 November)

Event Time Altitude Azimuth Distance (km) Brightness Sun altitude
Exits shadow 20:38:14 16° 264° (W) 1,719 4.7 -12.3°
Maximum altitude 20:42:07 64° 343° (NNW) 736 3.3 -11.3°
Drops below altitude 10° 20:47:02 10° 65° (ENE) 2,090 6.6 -10.1°
Sets 20:49:27 0° 68° (ENE) 3,003 7.6 -9.6°
